Tracking 30166 objects as of 22-Jan-2025
HD Live streaming from Space Station
objects crossing your sky now

STARLINK-33559

Track STARLINK-33559 now!
10-day predictions
STARLINK-33559 is classified as:


NORAD ID: 62107
Int'l Code: 2024-220V
Perigee: 451.1 km
Apogee: 451.4 km
Inclination: 43.0 °
Period: 93.5 minutes
Semi major axis: 6822 km
RCS: Unknown
Launch date: November 25, 2024
Source: United States (US)
Launch site: AIR FORCE EASTERN TEST RANGE (AFETR)
Your satellite tracking list
Your tracking list is empty




NASA's NSSDC Master Catalog

Two Line Element Set (TLE):
1 62107U 24220V   25022.02383253  .00001084  00000-0  33217-4 0  9996
2 62107  43.0000  13.7548 0000247 245.0317 115.0514 15.40683635 10197
Source of the keplerian elements: AFSPC